| time (UTC) | temp F | wind direction | speed knots | gust knots | rain 1hr in | rain 24hr in | rain mn in | humidity % | barometer mb |
| 20260508043507 | 42 | 240 | 0.0 | 0.0 | 0.00 | 0.05 | 0.02 | 69 | 1017.6 |
| 20260508043018 | 42 | 240 | 0.0 | 0.0 | 0.00 | 0.05 | 0.02 | 68 | 1017.5 |
| 20260508042515 | 42 | 240 | 0.0 | 0.0 | 0.00 | 0.05 | 0.02 | 68 | 1017.4 |
| 20260508042007 | 43 | 240 | 0.0 | 0.0 | 0.00 | 0.05 | 0.02 | 68 | 1017.4 |
| 20260508041518 | 43 | 240 | 0.0 | 0.0 | 0.00 | 0.05 | 0.02 | 67 | 1017.3 |
| 20260508041013 | 43 | 240 | 0.0 | 0.0 | 0.00 | 0.05 | 0.02 | 67 | 1017.2 |
| 20260508040512 | 43 | 240 | 0.0 | 0.0 | 0.00 | 0.05 | 0.02 | 67 | 1017.2 |
| 20260508040041 | 43 | 240 | 0.0 | 0.0 | 0.00 | 0.05 | 0.02 | 66 | 1017.1 |
| 20260508035536 | 43 | 240 | 0.0 | 0.0 | 0.00 | 0.05 | 0.02 | 66 | 1017.1 |
| 20260508035032 | 44 | 240 | 0.0 | 1.7 | 0.00 | 0.07 | 0.02 | 66 | 1017.1 |
| 20260508034543 | 44 | 240 | 0.0 | 1.7 | 0.00 | 0.07 | 0.02 | 66 | 1017.0 |
| 20260508034037 | 44 | 240 | 0.0 | 0.0 | 0.00 | 0.07 | 0.02 | 66 | 1016.9 |
| 20260508033533 | 44 | 240 | 0.0 | 0.0 | 0.00 | 0.07 | 0.02 | 65 | 1016.8 |
| 20260508033047 | 44 | 240 | 0.0 | 1.7 | 0.00 | 0.07 | 0.02 | 65 | 1016.9 |
| 20260508032540 | 44 | 229 | 0.0 | 1.7 | 0.00 | 0.07 | 0.02 | 64 | 1016.9 |
| 20260508032038 | 44 | 229 | 0.0 | 0.9 | 0.00 | 0.07 | 0.02 | 65 | 1016.8 |
| 20260508031549 | 45 | 229 | 0.0 | 0.9 | 0.00 | 0.07 | 0.02 | 64 | 1016.8 |
| 20260508031042 | 45 | 222 | 0.0 | 0.0 | 0.00 | 0.07 | 0.02 | 64 | 1016.7 |
| 20260508030538 | 45 | 222 | 0.0 | 0.0 | 0.00 | 0.07 | 0.02 | 63 | 1016.8 |
| 20260508030049 | 45 | 222 | 0.0 | 0.0 | 0.00 | 0.07 | 0.02 | 63 | 1016.6 |
| 20260508025542 | 45 | 222 | 0.0 | 0.0 | 0.00 | 0.07 | 0.02 | 62 | 1016.8 |
| 20260508025036 | 46 | 222 | 0.0 | 0.0 | 0.00 | 0.09 | 0.02 | 62 | 1016.6 |
| 20260508024554 | 46 | 222 | 0.0 | 0.0 | 0.00 | 0.09 | 0.02 | 63 | 1016.5 |
| 20260508024044 | 46 | 222 | 0.0 | 0.0 | 0.00 | 0.09 | 0.02 | 61 | 1016.5 |
| 20260508023540 | 46 | 222 | 0.0 | 0.0 | 0.00 | 0.09 | 0.02 | 60 | 1016.5 |
| 20260508023052 | 47 | 222 | 0.0 | 0.0 | 0.00 | 0.09 | 0.02 | 59 | 1016.5 |
| 20260508022547 | 47 | 96 | 0.0 | 0.0 | 0.00 | 0.09 | 0.02 | 59 | 1016.4 |
| 20260508022043 | 47 | 96 | 0.0 | 0.0 | 0.00 | 0.09 | 0.02 | 59 | 1016.1 |
| 20260508021556 | 47 | 96 | 0.0 | 0.0 | 0.00 | 0.09 | 0.02 | 59 | 1016.1 |
| 20260508021051 | 47 | 96 | 0.0 | 0.0 | 0.00 | 0.09 | 0.02 | 57 | 1016.0 |
| 20260508020547 | 47 | 262 | 0.0 | 0.0 | 0.00 | 0.09 | 0.02 | 57 | 1016.0 |
| 20260508020058 | 48 | 262 | 0.0 | 0.0 | 0.00 | 0.09 | 0.02 | 57 | 1015.8 |
| 20260508015550 | 48 | 262 | 0.0 | 0.0 | 0.00 | 0.09 | 0.02 | 57 | 1015.8 |
| 20260508015046 | 48 | 262 | 0.0 | 1.7 | 0.00 | 0.09 | 0.02 | 56 | 1015.8 |
| 20260508014559 | 48 | 262 | 0.0 | 1.7 | 0.00 | 0.09 | 0.02 | 57 | 1015.6 |
| 20260508014055 | 49 | 262 | 0.0 | 1.7 | 0.00 | 0.09 | 0.02 | 56 | 1015.6 |
| 20260508013548 | 49 | 257 | 0.0 | 1.7 | 0.00 | 0.09 | 0.02 | 55 | 1015.6 |
| 20260508013032 | 49 | 257 | 0.0 | 0.0 | 0.00 | 0.09 | 0.02 | 53 | 1015.4 |
| 20260508012514 | 50 | 257 | 0.0 | 1.7 | 0.00 | 0.09 | 0.02 | 52 | 1015.3 |
| 20260508012008 | 51 | 257 | 0.0 | 2.6 | 0.00 | 0.09 | 0.02 | 51 | 1015.3 |
| 20260508011522 | 51 | 257 | 0.9 | 2.6 | 0.00 | 0.09 | 0.02 | 52 | 1015.2 |
| 20260508011016 | 52 | 257 | 0.0 | 1.7 | 0.00 | 0.09 | 0.02 | 51 | 1015.2 |
| 20260508010512 | 52 | 257 | 0.0 | 1.7 | 0.00 | 0.09 | 0.02 | 49 | 1015.0 |
| 20260508010025 | 53 | 213 | 0.0 | 2.6 | 0.00 | 0.09 | 0.02 | 46 | 1015.0 |
| 20260508005522 | 53 | 171 | 0.9 | 3.5 | 0.00 | 0.09 | 0.02 | 46 | 1014.9 |
| 20260508005019 | 53 | 318 | 0.0 | 3.5 | 0.00 | 0.09 | 0.02 | 48 | 1014.8 |
| 20260508004537 | 53 | 271 | 0.0 | 3.5 | 0.00 | 0.09 | 0.02 | 46 | 1014.8 |
| 20260508004025 | 53 | 269 | 0.9 | 4.3 | 0.00 | 0.09 | 0.02 | 46 | 1014.8 |
| 20260508003518 | 54 | 210 | 0.9 | 4.3 | 0.00 | 0.09 | 0.02 | 44 | 1014.7 |
| 20260508003032 | 54 | 246 | 0.9 | 6.1 | 0.00 | 0.09 | 0.02 | 45 | 1014.7 |
| 20260508002526 | 54 | 256 | 2.6 | 6.1 | 0.00 | 0.09 | 0.02 | 45 | 1014.6 |
| 20260508002021 | 54 | 217 | 1.7 | 5.2 | 0.00 | 0.09 | 0.02 | 45 | 1014.5 |
| 20260508001535 | 54 | 218 | 0.9 | 3.5 | 0.00 | 0.09 | 0.02 | 48 | 1014.4 |
| 20260508001026 | 55 | 243 | 0.9 | 2.6 | 0.00 | 0.09 | 0.02 | 48 | 1014.4 |
| 20260508000522 | 55 | 233 | 0.0 | 4.3 | 0.00 | 0.09 | 0.02 | 46 | 1014.3 |
| 20260508000034 | 55 | 211 | 0.9 | 4.3 | 0.00 | 0.09 | 0.02 | 44 | 1014.2 |
| 20260507235530 | 56 | 221 | 0.9 | 7.8 | 0.00 | 0.09 | 0.02 | 43 | 1014.3 |
| 20260507235026 | 56 | 185 | 0.9 | 7.8 | 0.00 | 0.09 | 0.02 | 43 | 1014.2 |
| 20260507234536 | 56 | 186 | 0.9 | 4.3 | 0.00 | 0.09 | 0.02 | 43 | 1014.1 |
| 20260507234027 | 56 | 194 | 1.7 | 4.3 | 0.00 | 0.09 | 0.02 | 42 | 1014.1 |
| 20260507233520 | 56 | 269 | 1.7 | 4.3 | 0.00 | 0.09 | 0.02 | 42 | 1014.1 |
| 20260507233037 | 57 | 211 | 0.9 | 7.8 | 0.00 | 0.09 | 0.02 | 42 | 1014.0 |
| 20260507232530 | 57 | 215 | 3.5 | 12.2 | 0.00 | 0.09 | 0.02 | 41 | 1014.0 |
| 20260507232024 | 57 | 187 | 3.5 | 12.2 | 0.00 | 0.09 | 0.02 | 41 | 1014.0 |
| 20260507231540 | 58 | 198 | 3.5 | 8.7 | 0.00 | 0.09 | 0.02 | 40 | 1013.8 |
| 20260507231030 | 58 | 276 | 2.6 | 8.7 | 0.00 | 0.09 | 0.02 | 40 | 1013.9 |
| 20260507230526 | 58 | 202 | 2.6 | 7.0 | 0.00 | 0.09 | 0.02 | 41 | 1013.7 |
| 20260507230038 | 58 | 238 | 2.6 | 8.7 | 0.00 | 0.09 | 0.02 | 40 | 1013.9 |
| 20260507225533 | 59 | 207 | 2.6 | 10.4 | 0.00 | 0.09 | 0.02 | 41 | 1013.7 |
| 20260507225028 | 59 | 252 | 1.7 | 6.1 | 0.00 | 0.11 | 0.02 | 41 | 1013.8 |
| 20260507224541 | 59 | 166 | 2.6 | 6.1 | 0.00 | 0.11 | 0.02 | 41 | 1013.7 |
| 20260507224038 | 59 | 196 | 1.7 | 5.2 | 0.00 | 0.11 | 0.02 | 42 | 1013.6 |
| 20260507223528 | 58 | 196 | 1.7 | 7.8 | 0.00 | 0.11 | 0.02 | 42 | 1013.7 |
| 20260507223043 | 58 | 219 | 4.3 | 7.8 | 0.00 | 0.11 | 0.02 | 41 | 1013.6 |
| 20260507222533 | 58 | 240 | 2.6 | 6.1 | 0.00 | 0.11 | 0.02 | 42 | 1013.8 |
| 20260507222027 | 58 | 213 | 2.6 | 8.7 | 0.00 | 0.11 | 0.02 | 42 | 1013.7 |
| 20260507221538 | 58 | 193 | 4.3 | 8.7 | 0.00 | 0.11 | 0.02 | 42 | 1013.7 |
| 20260507221032 | 58 | 209 | 2.6 | 7.0 | 0.00 | 0.11 | 0.02 | 43 | 1013.6 |
| 20260507220524 | 58 | 215 | 2.6 | 8.7 | 0.00 | 0.11 | 0.02 | 43 | 1013.5 |
| 20260507220038 | 58 | 229 | 3.5 | 8.7 | 0.00 | 0.11 | 0.02 | 43 | 1013.4 |
| 20260507215530 | 58 | 190 | 1.7 | 8.7 | 0.00 | 0.11 | 0.02 | 43 | 1013.4 |
| 20260507215023 | 59 | 192 | 3.5 | 9.6 | 0.00 | 0.14 | 0.02 | 42 | 1013.3 |
| 20260507214545 | 59 | 299 | 5.2 | 11.3 | 0.00 | 0.14 | 0.02 | 41 | 1013.2 |
| 20260507214027 | 59 | 249 | 4.3 | 11.3 | 0.00 | 0.14 | 0.02 | 42 | 1013.1 |
| 20260507213521 | 59 | 249 | 1.7 | 11.3 | 0.00 | 0.14 | 0.02 | 44 | 1013.3 |
| 20260507213033 | 59 | 263 | 1.7 | 13.0 | 0.00 | 0.14 | 0.02 | 43 | 1013.2 |
| 20260507212525 | 59 | 344 | 3.5 | 7.8 | 0.00 | 0.14 | 0.02 | 44 | 1013.2 |
| 20260507212018 | 59 | 234 | 2.6 | 8.7 | 0.00 | 0.14 | 0.02 | 43 | 1013.1 |
| 20260507211532 | 59 | 278 | 3.5 | 9.6 | 0.00 | 0.14 | 0.02 | 42 | 1013.2 |
| 20260507211026 | 60 | 232 | 4.3 | 9.6 | 0.00 | 0.14 | 0.02 | 41 | 1013.1 |
| 20260507210519 | 61 | 246 | 2.6 | 9.6 | 0.00 | 0.14 | 0.02 | 41 | 1012.9 |
| 20260507210047 | 61 | 227 | 2.6 | 9.6 | 0.00 | 0.14 | 0.02 | 40 | 1012.9 |
| 20260507205525 | 61 | 273 | 1.7 | 8.7 | 0.00 | 0.14 | 0.02 | 40 | 1012.9 |
| 20260507205018 | 61 | 286 | 0.9 | 13.9 | 0.00 | 0.19 | 0.02 | 43 | 1012.7 |
| 20260507204529 | 61 | 347 | 4.3 | 9.6 | 0.00 | 0.19 | 0.02 | 40 | 1013.0 |
| 20260507204025 | 61 | 329 | 2.6 | 8.7 | 0.00 | 0.19 | 0.02 | 42 | 1012.8 |
| 20260507203516 | 61 | 355 | 2.6 | 8.7 | 0.00 | 0.19 | 0.02 | 42 | 1012.8 |
| 20260507203028 | 61 | 161 | 0.9 | 9.6 | 0.00 | 0.19 | 0.02 | 45 | 1012.8 |
| 20260507202523 | 60 | 277 | 3.5 | 8.7 | 0.00 | 0.19 | 0.02 | 43 | 1012.9 |
| 20260507202018 | 60 | 16 | 0.9 | 7.0 | 0.00 | 0.19 | 0.02 | 44 | 1012.8 |
| 20260507201530 | 60 | 211 | 2.6 | 13.9 | 0.00 | 0.19 | 0.02 | 43 | 1013.0 |
| 20260507201027 | 60 | 284 | 6.1 | 13.9 | 0.00 | 0.19 | 0.02 | 43 | 1013.0 |
| 20260507200519 | 60 | 66 | 4.3 | 10.4 | 0.00 | 0.19 | 0.02 | 43 | 1013.1 |
| 20260507200036 | 60 | 205 | 1.7 | 7.8 | 0.00 | 0.19 | 0.02 | 45 | 1013.0 |
| 20260507195524 | 60 | 232 | 2.6 | 7.8 | 0.00 | 0.19 | 0.02 | 45 | 1013.3 |
| 20260507195019 | 59 | 238 | 0.9 | 13.0 | 0.00 | 0.20 | 0.02 | 48 | 1013.5 |
| 20260507194550 | 58 | 202 | 2.6 | 13.0 | 0.00 | 0.20 | 0.02 | 46 | 1013.5 |
| 20260507194021 | 59 | 222 | 5.2 | 8.7 | 0.00 | 0.20 | 0.02 | 46 | 1013.7 |
| 20260507193515 | 59 | 316 | 1.7 | 9.6 | 0.00 | 0.20 | 0.02 | 46 | 1013.7 |
| 20260507193032 | 59 | 294 | 2.6 | 11.3 | 0.00 | 0.20 | 0.02 | 45 | 1013.6 |
| 20260507192522 | 59 | 244 | 3.5 | 13.9 | 0.00 | 0.20 | 0.02 | 47 | 1013.6 |
| 20260507192016 | 58 | 219 | 3.5 | 13.9 | 0.00 | 0.20 | 0.02 | 49 | 1013.6 |
| 20260507191530 | 58 | 259 | 4.3 | 9.6 | 0.00 | 0.20 | 0.02 | 48 | 1013.7 |
| 20260507191023 | 58 | 229 | 2.6 | 6.1 | 0.00 | 0.20 | 0.02 | 49 | 1013.6 |
| 20260507190518 | 58 | 272 | 2.6 | 8.7 | 0.00 | 0.20 | 0.02 | 49 | 1013.7 |
| 20260507190033 | 58 | 196 | 4.3 | 8.7 | 0.00 | 0.20 | 0.02 | 49 | 1013.7 |
| 20260507185523 | 58 | 290 | 1.7 | 7.8 | 0.00 | 0.20 | 0.02 | 48 | 1013.6 |
| 20260507185020 | 58 | 267 | 1.7 | 7.8 | 0.00 | 0.20 | 0.02 | 49 | 1013.7 |
| 20260507184531 | 58 | 131 | 1.7 | 8.7 | 0.00 | 0.20 | 0.02 | 48 | 1013.5 |
| 20260507184022 | 58 | 267 | 1.7 | 7.0 | 0.00 | 0.20 | 0.02 | 49 | 1013.6 |
| 20260507183515 | 58 | 212 | 0.9 | 7.0 | 0.00 | 0.20 | 0.02 | 49 | 1013.7 |
| 20260507183034 | 58 | 236 | 4.3 | 7.0 | 0.00 | 0.20 | 0.02 | 48 | 1013.6 |
| 20260507182520 | 58 | 225 | 0.0 | 8.7 | 0.00 | 0.20 | 0.02 | 50 | 1013.9 |
| 20260507182014 | 58 | 298 | 3.5 | 8.7 | 0.00 | 0.20 | 0.02 | 49 | 1013.9 |
| 20260507181526 | 58 | 124 | 2.6 | 7.0 | 0.00 | 0.20 | 0.02 | 50 | 1013.7 |
| 20260507181021 | 57 | 337 | 3.5 | 7.0 | 0.00 | 0.20 | 0.02 | 53 | 1013.9 |
| 20260507180516 | 57 | 209 | 0.9 | 6.1 | 0.00 | 0.20 | 0.02 | 53 | 1013.9 |
| 20260507180054 | 57 | 209 | 3.5 | 8.7 | 0.00 | 0.20 | 0.02 | 52 | 1014.0 |
| 20260507175545 | 57 | 330 | 3.5 | 9.6 | 0.00 | 0.20 | 0.02 | 52 | 1014.0 |
| 20260507175039 | 57 | 201 | 5.2 | 9.6 | 0.00 | 0.21 | 0.02 | 51 | 1013.9 |
| 20260507174552 | 57 | 305 | 1.7 | 4.3 | 0.00 | 0.21 | 0.02 | 54 | 1013.8 |
| 20260507174047 | 56 | 328 | 0.0 | 6.1 | 0.00 | 0.21 | 0.02 | 55 | 1014.0 |
| 20260507173539 | 56 | 203 | 2.6 | 8.7 | 0.00 | 0.21 | 0.02 | 54 | 1014.1 |
| 20260507173052 | 56 | 221 | 3.5 | 8.7 | 0.00 | 0.21 | 0.02 | 54 | 1014.1 |
| 20260507172545 | 56 | 298 | 3.5 | 7.8 | 0.00 | 0.21 | 0.02 | 54 | 1014.1 |
| 20260507172038 | 57 | 265 | 3.5 | 7.0 | 0.00 | 0.21 | 0.02 | 54 | 1014.2 |
| 20260507171551 | 57 | 25 | 0.9 | 7.8 | 0.00 | 0.21 | 0.02 | 56 | 1014.2 |
| 20260507171043 | 56 | 273 | 1.7 | 7.8 | 0.00 | 0.21 | 0.02 | 58 | 1014.3 |
| 20260507170535 | 56 | 209 | 1.7 | 6.1 | 0.00 | 0.21 | 0.02 | 59 | 1014.2 |
| 20260507170045 | 55 | 288 | 0.0 | 6.1 | 0.00 | 0.21 | 0.02 | 61 | 1014.5 |
| 20260507165538 | 55 | 157 | 1.7 | 6.1 | 0.00 | 0.21 | 0.02 | 58 | 1014.4 |
| 20260507165030 | 55 | 285 | 3.5 | 7.0 | 0.00 | 0.21 | 0.02 | 56 | 1014.6 |
| 20260507164542 | 55 | 260 | 2.6 | 6.1 | 0.00 | 0.21 | 0.02 | 61 | 1014.7 |
| 20260507164036 | 54 | 317 | 0.9 | 6.1 | 0.00 | 0.21 | 0.02 | 65 | 1014.7 |
| 20260507163530 | 54 | 300 | 1.7 | 6.1 | 0.00 | 0.21 | 0.02 | 62 | 1014.8 |
| 20260507163043 | 54 | 130 | 0.9 | 7.0 | 0.00 | 0.21 | 0.02 | 65 | 1014.8 |
| 20260507162536 | 54 | 15 | 0.9 | 7.8 | 0.00 | 0.21 | 0.02 | 63 | 1014.9 |
| 20260507162029 | 54 | 255 | 3.5 | 7.8 | 0.00 | 0.21 | 0.02 | 64 | 1015.0 |
| 20260507161500 | 54 | 198 | 1.7 | 7.8 | 0.00 | 0.21 | 0.02 | 64 | 1014.9 |
| 20260507161055 | 54 | 275 | 4.3 | 9.6 | 0.00 | 0.21 | 0.02 | 64 | 1014.9 |
| 20260507160547 | 54 | 346 | 2.6 | 10.4 | 0.00 | 0.21 | 0.02 | 63 | 1015.0 |
| 20260507160120 | 54 | 208 | 4.3 | 8.7 | 0.00 | 0.21 | 0.02 | 64 | 1015.1 |
| 20260507155053 | 54 | 244 | 2.6 | 7.0 | 0.00 | 0.22 | 0.02 | 66 | 1015.2 |
| 20260507154607 | 54 | 144 | 1.7 | 7.0 | 0.00 | 0.22 | 0.02 | 65 | 1015.3 |
| 20260507154055 | 54 | 317 | 2.6 | 7.0 | 0.00 | 0.22 | 0.02 | 64 | 1015.4 |
| 20260507153547 | 54 | 246 | 0.0 | 6.1 | 0.00 | 0.22 | 0.02 | 66 | 1015.4 |
| 20260507153058 | 54 | 252 | 1.7 | 6.1 | 0.00 | 0.22 | 0.02 | 65 | 1015.3 |
| 20260507152554 | 53 | 235 | 0.9 | 8.7 | 0.00 | 0.22 | 0.02 | 64 | 1015.3 |
| 20260507152047 | 53 | 207 | 2.6 | 8.7 | 0.00 | 0.22 | 0.02 | 63 | 1015.4 |
| 20260507151558 | 53 | 30 | 1.7 | 5.2 | 0.00 | 0.22 | 0.02 | 66 | 1015.2 |
| 20260507151052 | 53 | 231 | 0.9 | 8.7 | 0.00 | 0.22 | 0.02 | 66 | 1015.4 |
| 20260507150545 | 53 | 260 | 1.7 | 6.1 | 0.00 | 0.22 | 0.02 | 67 | 1015.6 |
| 20260507150058 | 53 | 205 | 0.0 | 7.0 | 0.00 | 0.22 | 0.02 | 67 | 1015.4 |
| 20260507145548 | 53 | 284 | 4.3 | 7.0 | 0.00 | 0.22 | 0.02 | 68 | 1015.5 |
| 20260507145037 | 52 | 348 | 0.9 | 7.0 | 0.00 | 0.25 | 0.02 | 70 | 1015.4 |
| 20260507144548 | 52 | 199 | 2.6 | 7.0 | 0.00 | 0.25 | 0.02 | 73 | 1015.5 |
| 20260507144042 | 52 | 211 | 0.0 | 3.5 | 0.00 | 0.25 | 0.02 | 76 | 1015.5 |
| 20260507143535 | 51 | 19 | 0.9 | 2.6 | 0.00 | 0.25 | 0.02 | 82 | 1015.6 |
| 20260507143046 | 50 | 131 | 0.0 | 6.1 | 0.00 | 0.25 | 0.02 | 81 | 1015.8 |
| 20260507142539 | 50 | 261 | 1.7 | 6.1 | 0.00 | 0.25 | 0.02 | 78 | 1015.8 |
| 20260507142030 | 50 | 211 | 1.7 | 5.2 | 0.00 | 0.25 | 0.02 | 83 | 1016.0 |
| 20260507141544 | 50 | 292 | 0.9 | 5.2 | 0.00 | 0.25 | 0.02 | 85 | 1016.0 |
| 20260507141038 | 50 | 71 | 0.0 | 0.9 | 0.00 | 0.25 | 0.02 | 87 | 1016.1 |
| 20260507140531 | 50 | 92 | 0.0 | 0.0 | 0.00 | 0.25 | 0.02 | 87 | 1016.2 |
| 20260507140008 | 49 | 221 | 0.0 | 2.6 | 0.00 | 0.25 | 0.02 | 88 | 1016.2 |
| 20260507135557 | 49 | 221 | 0.0 | 2.6 | 0.00 | 0.25 | 0.02 | 88 | 1016.2 |
| 20260507135050 | 49 | 219 | 0.9 | 2.6 | 0.00 | 0.26 | 0.02 | 89 | 1016.2 |
| 20260507134502 | 49 | 242 | 0.9 | 2.6 | 0.00 | 0.26 | 0.02 | 90 | 1016.2 |
| 20260507134055 | 48 | 270 | 0.0 | 4.3 | 0.00 | 0.26 | 0.02 | 90 | 1016.3 |
| 20260507133548 | 48 | 270 | 1.7 | 4.3 | 0.00 | 0.26 | 0.02 | 92 | 1016.3 |
| 20260507133106 | 49 | 257 | 0.0 | 1.7 | 0.00 | 0.26 | 0.02 | 94 | 1016.3 |
| 20260507132551 | 48 | 257 | 0.0 | 1.7 | 0.00 | 0.26 | 0.02 | 94 | 1016.3 |
| 20260507132044 | 48 | 257 | 0.0 | 2.6 | 0.00 | 0.26 | 0.02 | 94 | 1016.3 |
| 20260507131612 | 48 | 236 | 0.0 | 2.6 | 0.00 | 0.26 | 0.02 | 95 | 1016.3 |
| 20260507131052 | 48 | 236 | 0.9 | 2.6 | 0.00 | 0.26 | 0.02 | 95 | 1016.3 |
| 20260507130547 | 48 | 290 | 0.0 | 0.0 | 0.00 | 0.26 | 0.02 | 95 | 1016.3 |
| 20260507130057 | 48 | 302 | 0.0 | 1.7 | 0.00 | 0.26 | 0.02 | 95 | 1016.3 |
| 20260507125551 | 48 | 296 | 0.0 | 1.7 | 0.00 | 0.26 | 0.02 | 95 | 1016.2 |
| 20260507125043 | 48 | 59 | 0.0 | 0.9 | 0.00 | 0.30 | 0.02 | 96 | 1016.3 |
| 20260507124555 | 48 | 37 | 0.0 | 0.9 | 0.00 | 0.30 | 0.02 | 96 | 1016.4 |
| 20260507124049 | 47 | 115 | 0.0 | 0.0 | 0.00 | 0.30 | 0.02 | 96 | 1016.4 |
| 20260507123542 | 47 | 114 | 0.0 | 0.0 | 0.01 | 0.30 | 0.02 | 95 | 1016.4 |
| 20260507123054 | 47 | 114 | 0.0 | 0.0 | 0.01 | 0.30 | 0.02 | 96 | 1016.5 |
| 20260507122546 | 47 | 114 | 0.0 | 0.0 | 0.01 | 0.30 | 0.02 | 96 | 1016.4 |
| 20260507122042 | 47 | 114 | 0.0 | 1.7 | 0.01 | 0.30 | 0.02 | 95 | 1016.5 |
| 20260507121552 | 47 | 113 | 0.0 | 1.7 | 0.01 | 0.30 | 0.02 | 96 | 1016.5 |
| 20260507121047 | 47 | 113 | 0.0 | 1.7 | 0.01 | 0.30 | 0.02 | 96 | 1016.5 |
| 20260507120541 | 47 | 163 | 0.0 | 0.9 | 0.01 | 0.30 | 0.02 | 96 | 1016.5 |
| 20260507120052 | 47 | 163 | 0.0 | 0.9 | 0.01 | 0.30 | 0.02 | 96 | 1016.4 |
| 20260507115545 | 47 | 174 | 0.0 | 1.7 | 0.01 | 0.30 | 0.02 | 96 | 1016.4 |
| 20260507115038 | 47 | 174 | 0.0 | 1.7 | 0.01 | 0.39 | 0.02 | 96 | 1016.4 |
| 20260507114551 | 47 | 166 | 0.0 | 0.9 | 0.01 | 0.39 | 0.02 | 96 | 1016.2 |
| 20260507114045 | 47 | 166 | 0.0 | 0.0 | 0.00 | 0.38 | 0.01 | 96 | 1016.3 |
| 20260507113538 | 47 | 166 | 0.0 | 0.0 | 0.00 | 0.38 | 0.01 | 96 | 1016.3 |
| 20260507113049 | 47 | 166 | 0.0 | 0.0 | 0.00 | 0.38 | 0.01 | 96 | 1016.0 |
| 20260507112543 | 47 | 166 | 0.0 | 0.0 | 0.00 | 0.38 | 0.01 | 96 | 1016.1 |
| 20260507112037 | 47 | 166 | 0.0 | 0.0 | 0.00 | 0.38 | 0.01 | 95 | 1015.7 |
| 20260507111550 | 46 | 166 | 0.0 | 0.0 | 0.00 | 0.38 | 0.01 | 96 | 1015.6 |
| 20260507111044 | 46 | 166 | 0.0 | 2.6 | 0.00 | 0.38 | 0.01 | 95 | 1015.6 |
| 20260507110538 | 46 | 166 | 0.9 | 2.6 | 0.00 | 0.38 | 0.01 | 95 | 1015.6 |
| 20260507110048 | 46 | 203 | 0.0 | 1.7 | 0.00 | 0.38 | 0.01 | 95 | 1015.5 |
| 20260507105541 | 46 | 203 | 0.0 | 0.0 | 0.00 | 0.38 | 0.01 | 96 | 1015.4 |
| 20260507105037 | 46 | 203 | 0.0 | 0.0 | 0.00 | 0.51 | 0.01 | 96 | 1015.4 |
| 20260507104550 | 46 | 203 | 0.0 | 0.0 | 0.00 | 0.51 | 0.01 | 96 | 1015.3 |
| 20260507104044 | 46 | 203 | 0.0 | 0.0 | 0.00 | 0.51 | 0.01 | 96 | 1015.3 |
| 20260507103539 | 46 | 203 | 0.0 | 2.6 | 0.00 | 0.51 | 0.01 | 95 | 1015.2 |
| 20260507103052 | 46 | 193 | 0.0 | 3.5 | 0.00 | 0.51 | 0.01 | 95 | 1015.2 |
| 20260507102546 | 46 | 277 | 1.7 | 3.5 | 0.00 | 0.51 | 0.01 | 96 | 1015.4 |
| 20260507102041 | 46 | 254 | 0.9 | 2.6 | 0.00 | 0.51 | 0.01 | 95 | 1015.3 |
| 20260507101556 | 46 | 227 | 0.0 | 0.0 | 0.00 | 0.51 | 0.01 | 95 | 1015.3 |
| 20260507101053 | 46 | 266 | 0.0 | 0.0 | 0.00 | 0.51 | 0.01 | 95 | 1015.3 |
| 20260507100544 | 46 | 232 | 0.0 | 0.0 | 0.00 | 0.51 | 0.01 | 95 | 1015.2 |
| 20260507100053 | 46 | 232 | 0.0 | 2.6 | 0.00 | 0.51 | 0.01 | 95 | 1015.1 |
| 20260507095547 | 46 | 245 | 0.0 | 2.6 | 0.00 | 0.51 | 0.01 | 95 | 1015.1 |
| 20260507095042 | 46 | 263 | 0.0 | 1.7 | 0.00 | 0.67 | 0.01 | 95 | 1015.0 |
| 20260507094556 | 46 | 263 | 0.0 | 1.7 | 0.00 | 0.67 | 0.01 | 95 | 1015.0 |
| 20260507094050 | 46 | 263 | 0.0 | 1.7 | 0.00 | 0.67 | 0.01 | 95 | 1015.1 |
| 20260507093544 | 46 | 198 | 0.0 | 0.0 | 0.00 | 0.67 | 0.01 | 95 | 1014.9 |
| 20260507093058 | 46 | 198 | 0.0 | 0.0 | 0.00 | 0.67 | 0.01 | 95 | 1015.1 |
| 20260507092553 | 46 | 198 | 0.0 | 0.0 | 0.00 | 0.67 | 0.01 | 95 | 1015.1 |
| 20260507092046 | 46 | 198 | 0.0 | 0.0 | 0.00 | 0.67 | 0.01 | 95 | 1015.0 |
| 20260507091558 | 46 | 198 | 0.0 | 0.0 | 0.00 | 0.67 | 0.01 | 94 | 1015.0 |
| 20260507091054 | 46 | 198 | 0.0 | 0.0 | 0.00 | 0.67 | 0.01 | 94 | 1014.9 |
| 20260507090546 | 46 | 198 | 0.0 | 0.0 | 0.00 | 0.67 | 0.01 | 94 | 1014.9 |
| 20260507090100 | 46 | 198 | 0.0 | 0.0 | 0.00 | 0.67 | 0.01 | 94 | 1014.8 |
| 20260507085555 | 46 | 198 | 0.0 | 0.0 | 0.00 | 0.67 | 0.01 | 94 | 1015.0 |
| 20260507085050 | 46 | 198 | 0.0 | 0.0 | 0.00 | 0.68 | 0.01 | 95 | 1014.8 |
| 20260507084502 | 46 | 198 | 0.0 | 0.0 | 0.00 | 0.68 | 0.01 | 95 | 1014.9 |
| 20260507084056 | 46 | 198 | 0.0 | 0.0 | 0.00 | 0.68 | 0.01 | 95 | 1014.9 |
| 20260507083549 | 47 | 198 | 0.0 | 0.0 | 0.00 | 0.68 | 0.01 | 95 | 1015.0 |
| 20260507083001 | 47 | 198 | 0.0 | 0.0 | 0.00 | 0.68 | 0.01 | 94 | 1015.0 |
| 20260507082556 | 47 | 198 | 0.0 | 0.0 | 0.00 | 0.68 | 0.01 | 94 | 1015.1 |
| 20260507082057 | 47 | 198 | 0.0 | 0.0 | 0.00 | 0.68 | 0.01 | 94 | 1015.0 |
| 20260507081505 | 47 | 198 | 0.0 | 0.0 | 0.00 | 0.68 | 0.01 | 95 | 1014.9 |
| 20260507081100 | 47 | 198 | 0.0 | 0.0 | 0.00 | 0.68 | 0.01 | 95 | 1015.0 |
| 20260507080555 | 47 | 198 | 0.0 | 0.0 | 0.00 | 0.68 | 0.01 | 95 | 1015.0 |
| 20260507080006 | 47 | 198 | 0.0 | 0.0 | 0.01 | 0.68 | 0.01 | 95 | 1015.1 |
| 20260507075601 | 47 | 198 | 0.0 | 0.0 | 0.01 | 0.68 | 0.01 | 95 | 1015.0 |
| 20260507075055 | 47 | 198 | 0.0 | 0.0 | 0.01 | 0.68 | 0.01 | 94 | 1015.1 |
| 20260507074510 | 47 | 198 | 0.0 | 2.6 | 0.02 | 0.68 | 0.01 | 94 | 1015.1 |
| 20260507074007 | 47 | 198 | 0.0 | 2.6 | 0.02 | 0.68 | 0.01 | 94 | 1015.0 |
| 20260507073558 | 47 | 198 | 0.9 | 2.6 | 0.02 | 0.68 | 0.01 | 94 | 1014.9 |
| 20260507073009 | 47 | 198 | 0.9 | 2.6 | 0.02 | 0.68 | 0.01 | 94 | 1015.0 |
| 20260507072503 | 48 | 196 | 1.7 | 3.5 | 0.02 | 0.68 | 0.01 | 95 | 1014.9 |
| 20260507072059 | 48 | 184 | 0.9 | 3.5 | 0.02 | 0.68 | 0.01 | 95 | 1014.9 |
| 20260507071528 | 48 | 236 | 0.0 | 1.7 | 0.02 | 0.68 | 0.01 | 95 | 1014.9 |
| 20260507071006 | 48 | 170 | 0.0 | 3.5 | 0.02 | 0.68 | 0.01 | 95 | 1014.9 |
| 20260507070600 | 48 | 242 | 0.9 | 3.5 | 0.02 | 0.68 | 0.01 | 95 | 1014.9 |
| 20260507070033 | 48 | 246 | 0.9 | 2.6 | 0.01 | 0.67 | 0.00 | 95 | 1014.8 |
| 20260507065530 | 48 | 208 | 0.0 | 0.0 | 0.01 | 0.67 | 0.00 | 95 | 1014.9 |
| 20260507065025 | 48 | 208 | 0.0 | 1.7 | 0.01 | 0.67 | 0.67 | 95 | 1014.9 |
| 20260507064536 | 48 | 208 | 0.0 | 2.6 | 0.00 | 0.66 | 0.66 | 94 | 1014.9 |
| 20260507064031 | 48 | 208 | 0.0 | 2.6 | 0.00 | 0.66 | 0.66 | 94 | 1014.9 |
| 20260507063525 | 48 | 208 | 0.9 | 2.6 | 0.00 | 0.66 | 0.66 | 94 | 1014.9 |
| 20260507063043 | 48 | 208 | 1.7 | 2.6 | 0.01 | 0.66 | 0.66 | 94 | 1014.9 |
| 20260507062533 | 48 | 219 | 0.0 | 0.0 | 0.01 | 0.66 | 0.66 | 95 | 1014.9 |
| 20260507062026 | 48 | 219 | 0.0 | 0.0 | 0.01 | 0.66 | 0.66 | 95 | 1014.8 |
| 20260507061540 | 48 | 219 | 0.0 | 1.7 | 0.01 | 0.66 | 0.66 | 95 | 1014.8 |
| 20260507061032 | 48 | 219 | 0.0 | 2.6 | 0.02 | 0.66 | 0.66 | 95 | 1014.8 |
| 20260507060527 | 48 | 219 | 0.9 | 2.6 | 0.02 | 0.66 | 0.66 | 95 | 1014.9 |
| 20260507060039 | 49 | 230 | 0.9 | 2.6 | 0.02 | 0.66 | 0.66 | 94 | 1014.9 |
| 20260507055532 | 49 | 223 | 0.0 | 1.7 | 0.02 | 0.66 | 0.66 | 94 | 1015.0 |
| 20260507055026 | 49 | 194 | 0.0 | 1.7 | 0.02 | 0.66 | 0.66 | 95 | 1015.1 |
| 20260507054541 | 49 | 194 | 0.0 | 1.7 | 0.02 | 0.66 | 0.66 | 94 | 1015.2 |
| 20260507054035 | 49 | 225 | 0.0 | 2.6 | 0.02 | 0.66 | 0.66 | 94 | 1015.2 |
| 20260507053532 | 49 | 225 | 0.0 | 2.6 | 0.02 | 0.66 | 0.66 | 94 | 1015.3 |
| 20260507053110 | 49 | 225 | 0.0 | 1.7 | 0.01 | 0.65 | 0.65 | 95 | 1015.3 |
| 20260507052538 | 49 | 225 | 0.0 | 0.0 | 0.01 | 0.65 | 0.65 | 95 | 1015.2 |
| 20260507052032 | 49 | 225 | 0.0 | 0.0 | 0.01 | 0.65 | 0.65 | 95 | 1015.2 |
| 20260507051552 | 49 | 225 | 0.0 | 0.0 | 0.01 | 0.65 | 0.65 | 95 | 1015.3 |
| 20260507051041 | 49 | 225 | 0.0 | 0.0 | 0.00 | 0.64 | 0.64 | 94 | 1015.3 |
| 20260507050536 | 49 | 225 | 0.0 | 0.0 | 0.00 | 0.64 | 0.64 | 95 | 1015.3 |
| 20260507050047 | 49 | 225 | 0.0 | 0.0 | 0.00 | 0.64 | 0.64 | 95 | 1015.3 |
| 20260507045544 | 49 | 225 | 0.0 | 0.0 | 0.00 | 0.64 | 0.64 | 95 | 1015.2 |
| 20260507045035 | 49 | 226 | 0.0 | 0.9 | 0.01 | 0.64 | 0.64 | 95 | 1015.4 |
| 20260507044554 | 49 | 227 | 0.0 | 0.9 | 0.01 | 0.64 | 0.64 | 94 | 1015.4 |
| 20260507044043 | 49 | 227 | 0.0 | 1.7 | 0.01 | 0.64 | 0.64 | 95 | 1015.4 |